Location: Blue Mountain Vista Observatory
(40.6992°N, 75.9422°W)
Time: 16:37:38
(UTC-04:00)

Daily predictions for brighter satellites

Satellite Brightness Start Highest point End
(mag) Time Altitude Azimuth Time Altitude Azimuth Time Altitude Azimuth
Cosmos 1867 3.9 20:18:49 10° NNW 20:24:09 51° NE 20:29:26 10° SE
Cosmos 1933 3.7 20:21:39 10° SSE 20:25:27 43° E 20:29:17 10° NNE
Cosmos 2263 Rocket 2.2 20:20:29 10° NNW 20:26:05 78° ENE 20:31:39 10° SSE
Cosmos 1655 Rocket 4.1 20:27:50 10° N 20:34:14 71° E 20:40:31 10° SSE
Cosmos 2242 Rocket 3.8 20:29:44 10° S 20:34:14 79° W 20:38:42 10° N
Cosmos 1862 3.3 20:31:52 10° N 20:35:54 71° E 20:39:57 10° SSE
USA 229 DEB 3.8 20:29:41 10° SSW 20:36:16 54° ESE 20:42:57 10° NE
USA 229 3.8 20:29:49 10° SSW 20:36:23 53° ESE 20:43:04 10° NE
Cosmos 2279 Rocket 4.0 20:32:27 10° S 20:38:40 75° E 20:44:53 10° N
Cosmos 1408 3.2 20:36:00 10° NNW 20:39:38 61° W 20:43:12 10° S
Cosmos 2322 Rocket 3.3 20:35:33 10° SW 20:40:58 49° WNW 20:46:26 10° NNE
Cosmos 1825 2.9 20:40:23 10° NNW 20:44:07 56° W 20:47:50 10° S
FALCON 9 R/B 1.9 20:44:03 10° WSW 20:46:15 21° S 20:47:35 13° SE
Cosmos 2360 Rocket 2.2 20:41:34 10° SSW 20:47:12 75° ESE 20:52:53 10° NNE
Cosmos 1428 Rocket 4.4 20:43:29 10° N 20:49:37 80° E 20:55:44 10° S
ATLAS 5 CENTAUR R/B 2.5 20:47:12 10° NW 20:53:17 82° WSW 20:59:50 10° SSE
H-2A R/B 4.5 20:50:27 10° SSW 20:53:59 34° W 20:57:30 10° NNW
COSMOS 2428 3.1 20:51:23 10° S 20:56:36 39° ESE 21:01:52 10° NE
Cosmos 1908 Rocket 3.7 20:53:18 10° N 20:57:34 53° E 21:01:41 11° SSE
Resurs 01 Rocket 2.9 20:55:22 10° S 20:59:34 42° W 21:03:49 10° NNW
USA 267 3.6 20:54:11 10° NE 21:00:42 71° NW 21:07:13 10° WSW
SJ-11-01 4.3 20:57:20 10° SSE 21:01:55 62° ENE 21:06:32 10° N
BREEZE-M DEB (TANK) 4.3 20:59:27 10° WNW 21:02:42 48° N 21:11:39 10° E
Helios 1A 3.0 20:59:16 10° SSE 21:03:30 90° NW 21:07:47 10° NNW
Cosmos 1939 Rocket 2.9 21:00:52 12° SSE 21:04:33 61° ENE 21:08:29 10° N
Atlas Centaur 2 3.4 21:02:30 10° WSW 21:08:05 34° S 21:12:51 17° SE
CZ-4B DEB 2.5 21:06:09 15° SSE 21:08:33 78° ENE 21:11:36 10° N
Cosmos 2322 3.8 21:04:07 10° SSW 21:09:49 85° WNW 21:15:34 10° NNE
Okean 1-7 3.5 21:08:36 13° SSE 21:12:09 39° E 21:16:16 10° NNE
Cosmos 1733 Rocket 4.3 21:08:00 10° NNW 21:12:13 43° W 21:16:26 10° SSW
Cosmos 1782 Rocket 4.0 21:08:15 10° N 21:12:27 44° ENE 21:15:11 20° SE
Abrixas rocket 4.2 21:09:55 10° NW 21:12:38 23° N 21:15:18 10° ENE
Sich 1 Rocket 3.6 21:08:50 10° N 21:13:22 80° E 21:17:37 12° S
SL-16 R/B 4.4 21:08:32 10° WSW 21:13:24 29° NW 21:18:17 10° N
Cosmos 1606 4.2 21:13:16 18° E 21:13:25 18° E 21:16:00 10° NE
YAOGAN 6 3.1 21:11:35 22° SE 21:13:32 42° ENE 21:16:57 10° N
Meteor 1-25 Rocket 4.4 21:16:47 10° N 21:22:14 53° ENE 21:25:49 21° SSE
Cosmos 968 Rocket 3.9 21:20:35 10° NNW 21:25:44 61° WSW 21:30:32 12° S
Meteor 2-10 Rocket 4.1 21:20:37 10° SSW 21:26:24 70° W 21:32:09 10° N
Cosmos 1844 Rocket 2.9 21:21:13 10° NNW 21:26:41 53° ENE 21:29:48 25° SE
CZ-4C R/B 3.8 21:20:34 10° NNW 21:26:55 35° NE 21:31:55 18° E
Meteor 1-20 Rocket 4.5 21:21:28 10° N 21:26:57 52° ENE 21:30:20 23° SE
Cosmos 2237 Rocket 3.3 21:26:55 22° ESE 21:27:38 23° E 21:31:59 10° NE
Meteor 1-14 Rocket 4.2 21:22:51 10° N 21:28:36 84° E 21:33:26 15° S
Cosmos 2333 4.1 21:26:31 10° SSW 21:32:11 70° ESE 21:37:56 10° NNE
Cosmos 2278 Rocket 3.4 21:28:23 10° N 21:33:08 27° NE 21:35:34 20° E
Okean 2 Rocket 3.3 21:28:55 10° N 21:33:22 54° E 21:35:19 30° SE
USA 234 3.5 21:30:18 21° ESE 21:34:45 63° NE 21:41:13 10° NW
Cosmos 2333 Rocket 2.7 21:32:00 19° SSE 21:35:34 38° ESE 21:40:51 10° NE
Helios 1B rocket 3.8 21:33:58 10° N 21:37:48 40° WNW 21:41:38 10° SW
Cosmos 1703 Rocket 4.2 21:40:37 10° SSW 21:44:58 56° W 21:49:19 10° N
Envisat 4.2 21:43:29 10° SSW 21:48:15 40° W 21:53:02 10° NNW
Cosmos 1633 3.8 21:45:30 10° NNE 21:48:20 27° ENE 21:48:20 27° ENE
Cosmos 2219 Rocket 2.1 21:43:26 10° S 21:48:55 62° ESE 21:54:28 10° NNE
SPOT 5 2.8 21:57:52 45° SE 21:59:06 62° ENE 22:03:36 10° N
SeaSat 1 3.3 21:58:47 30° E 22:00:05 36° NE 22:04:34 10° N
Gbstr 26 Del rocket 4.5 21:53:33 10° SSW 22:00:56 58° SE 22:08:54 10° ENE
NOSS 0 Rocket 3.9 22:00:21 23° S 22:04:11 58° ESE 22:10:12 10° NNE
ERS-1 Rocket 3.3 22:01:58 26° S 22:04:41 61° W 22:09:40 10° NNW
H-2A R/B 2.4 22:06:42 40° E 22:07:27 44° ENE 22:12:06 10° N
Cosmos 2151 Rocket 3.6 22:03:48 10° N 22:08:13 62° E 22:08:40 58° ESE
Milstar 3 4.4 22:05:58 10° WSW 22:10:22 16° SSW 22:11:48 15° SSW
Cosmos 1674 Rocket 4.2 22:15:43 40° ENE 22:15:43 40° ENE 22:19:04 10° NNE
Cosmos 1570 Rocket 4.0 22:11:35 21° SSW 22:15:09 86° WNW 22:20:28 10° NNE
Landsat 7 4.3 22:16:56 41° ENE 22:17:08 42° ENE 22:21:37 10° N
Okean 1 Rocket 4.3 22:13:31 10° NNE 22:16:49 28° ENE 22:16:49 28° ENE
NOSS 3-1 (C) 3.5 22:13:25 10° SW 22:19:09 73° NW 22:25:37 10° NNE
MetOp-B 4.3 22:17:11 37° S 22:19:16 68° WSW 22:24:37 10° NNW
Cosmos 1782 3.5 22:18:24 35° SW 22:19:45 52° W 22:23:41 10° N
ASTEX 1 3.8 22:21:11 45° E 22:21:16 45° ENE 22:26:00 10° N
Cosmos 1602 4.3 22:17:51 10° N 22:20:56 48° NE 22:20:56 48° NE
YAOGAN 11 4.4 22:20:58 49° SSW 22:21:50 60° W 22:26:07 10° NNW
Iridium 4 Rocket 4.1 22:21:35 10° NNE 22:24:24 31° NE 22:24:24 31° NE
H-2A R/B 2.9 22:27:25 37° NE 22:27:25 37° NE 22:31:00 10° N
Cosmos 2208 Rocket 4.2 22:25:08 24° SSW 22:28:27 73° WNW 22:33:46 10° NNE
DMSP B5D2-2 4.4 22:23:54 10° NNE 22:28:35 47° E 22:28:35 47° E
Cosmos 1346 Rocket 3.1 22:31:35 59° N 22:31:35 59° N 22:34:53 10° N
Terra 2.5 22:32:31 41° ENE 22:32:31 41° ENE 22:36:44 10° N
Meteor 1-27 Rocket 3.6 22:33:10 57° S 22:34:23 84° E 22:39:59 10° N
NOSS 3-1 (A) 3.5 22:31:13 10° SW 22:36:58 74° NW 22:43:28 10° NNE
ATLAS 2AS CENTAUR R/B 3.8 22:39:31 31° E 22:39:31 31° E 22:45:07 10° NE
COSMOS 2428 4.5 22:35:57 10° WSW 22:40:56 31° WNW 22:45:57 10° N
ARGOS 3.6 22:41:15 43° SSW 22:42:36 54° W 22:47:53 10° NNW
Cosmos 2150 Rocket 4.4 22:37:30 10° N 22:42:50 50° ENE 22:42:57 50° ENE
Cosmos 1898 Rocket 3.4 22:39:23 10° NNW 22:44:33 69° ENE 22:44:33 69° ENE
Cosmos 1980 3.8 22:42:14 35° SW 22:44:42 75° WNW 22:50:22 10° NNE
SL-08 R/B 4.4 22:40:03 10° N 22:46:11 84° W 22:47:23 60° S
Cosmos 1553 Rocket 4.0 22:46:05 47° SSW 22:48:02 79° W 22:54:16 10° N
Cosmos 1300 Rocket 3.9 22:43:57 10° N 22:47:37 62° N 22:47:37 62° N
Cosmos 1844 4.5 22:43:21 10° NW 22:48:38 42° WSW 22:49:48 37° SW
Cosmos 1606 4.5 22:48:19 25° W 22:48:59 27° WNW 22:52:14 10° NNW
SL-16 R/B 2.9 22:53:21 39° ENE 22:53:21 39° ENE 22:57:19 10° NE
SPOT 1/Viking Rocket 3.9 22:55:00 52° SW 22:55:34 54° W 23:00:42 10° NNW
Atlas Centaur 2 4.0 22:51:09 10° WSW 22:55:28 25° SSW 22:55:28 25° SSW
ATLAS 3B R/B 3.9 22:55:09 10° NNW 23:01:04 30° NE 23:03:13 25° ENE
Cosmos 2315 Rocket 4.4 23:01:59 45° ENE 23:01:59 45° ENE 23:07:18 10° NNE
Meteor 1-11 Rocket 4.0 22:58:02 10° NNW 23:03:28 59° W 23:04:01 56° WSW
Cosmos 1814 Rocket 4.4 23:06:52 54° NNE 23:06:52 54° NNE 23:10:51 10° NNE
ATLAS CENTAUR R/B 3.5 23:12:45 20° NNE 23:12:45 20° NNE 23:14:06 10° NNE
Cosmos 1844 Rocket 4.5 23:06:07 10° NW 23:10:06 20° W 23:11:29 19° WSW
Cosmos 2237 Rocket 3.0 23:08:37 28° WSW 23:11:18 50° WNW 23:16:50 10° NNE
Cosmos 468 Rocket 4.3 23:13:09 64° WNW 23:13:16 65° WNW 23:18:34 10° NNE
Cosmos 883 Rocket 4.3 23:14:58 83° E 23:14:58 83° E 23:21:02 10° N
CZ-4C R/B 3.0 23:08:46 10° NW 23:15:56 63° WSW 23:17:07 56° SSW
Cosmos 1386 Rocket 4.4 23:10:18 10° N 23:16:41 77° W 23:17:08 73° SW
Cosmos 2278 Rocket 2.8 23:12:02 10° NW 23:17:24 45° WSW 23:17:25 45° WSW
USA 234 4.0 23:17:39 37° SW 23:17:56 37° SW 23:23:56 10° WNW
CZ-4B R/B 4.3 23:13:27 10° NNE 23:16:36 41° NNE 23:16:36 41° NNE
Cosmos 2333 Rocket 3.8 23:14:44 10° WSW 23:19:51 32° WNW 23:25:01 10° N
Cosmos 1709 Rocket 3.9 23:21:23 10° N 23:27:37 80° ENE 23:27:37 80° ENE
Cosmos 2219 Rocket 4.5 23:29:11 10° W 23:33:20 21° NW 23:37:31 10° N
SeaSat 1 4.0 23:38:34 28° W 23:38:34 28° W 23:41:57 10° NW
H-2A R/B 3.9 23:47:19 20° W 23:47:19 20° W 23:50:41 10° NW
